Kuchera_Ratio
0.0 0.0 0.0 0.0 0.0 0.0 0.0 0.0 0.0 0.0 0.0 0.0 0.0 0.0 0.0 0.0 0.0 0.0 0.0 0.0 0.0 0.0 0.0 0.0 0.0 0.0 0.0 0.0 0.0 0.0 0.0 0.0 1.2 0.0 0.0 0.0 0.0 0.0 0.0 0.0 0.0 0.0 0.0
0.0 0.0 0.0 0.0 0.0 0.0 0.0 0.0 0.0 0.0 0.0 0.0 0.0 0.0 0.0 0.0 0.0 0.0 0.0 0.0 0.0 0.0 0.0 0.0 0.0 0.0 0.0 0.0 0.0 0.0 0.0 0.0 0.0 2.5 0.0 0.0 0.0 0.0 0.0 0.0 0.0 0.0 0.0
0.0 0.0 0.0 0.0 0.0 0.0 0.0 0.0 0.0 0.0 0.0 0.0 0.0 0.0 0.0 0.0 0.0 0.0 0.0 0.0 0.0 0.0 0.0 0.0 0.0 0.0 0.0 0.0 0.0 0.0 0.0 0.0 0.0 2.0 2.7 0.0 0.0 0.0 0.0 0.0 0.0 0.0 0.0
0.0 0.0 0.0 0.0 0.0 0.0 0.0 0.0 0.0 0.0 0.0 0.0 0.0 0.0 0.0 0.0 0.0 0.0 0.0 0.0 0.0 0.0 0.0 0.0 0.0 0.0 0.0 0.0 0.0 0.0 0.0 0.8 1.4 2.4 2.5 2.2 0.7 0.0 0.0 1.4 1.8 0.0 0.0
0.0 0.0 0.0 0.0 0.0 0.0 0.0 0.0 0.0 0.0 0.0 0.0 0.0 0.0 0.0 0.0 0.0 0.0 0.0 0.0 0.0 0.0 0.0 0.0 0.0 0.0 0.0 0.0 0.0 0.0 0.9 3.6 2.7 4.1 5.9 5.6 6.1 4.6 5.1 2.6 4.6 2.7 1.2
0.0 0.0 0.0 0.0 0.0 0.0 0.0 0.0 0.0 0.0 0.0 0.0 0.0 0.0 0.0 0.0 0.0 0.0 0.0 0.0 0.0 0.0 0.0 0.0 0.0 0.0 0.0 0.0 0.0 0.0 0.0 2.0 4.3 6.6 8.0 9.2 7.5 4.8 4.5 5.7 6.8 9.0 11.9
0.0 0.0 0.0 0.0 0.0 0.0 0.0 0.0 0.0 0.0 0.0 0.0 0.0 0.0 0.0 0.0 0.0 0.0 0.0 0.0 0.0 0.0 0.0 0.0 0.0 0.0 0.0 0.0 0.0 0.0 0.0 0.0 0.0 4.1 7.1 7.9 7.9 5.3 5.6 8.6 9.0 9.5 10.1
0.0 0.0 0.0 0.0 0.0 0.0 0.0 0.0 0.0 0.0 0.0 0.0 0.0 0.0 0.0 0.0 0.0 0.0 0.0 0.0 0.0 0.0 0.0 0.0 0.0 0.0 0.0 0.0 0.0 3.8 3.4 2.3 1.8 0.0 2.3 3.4 3.5 3.5 5.9 5.2 7.0 8.3 7.2
0.0 0.0 0.0 0.0 0.0 0.0 0.0 0.0 0.0 0.0 0.0 0.0 0.0 0.0 0.0 0.0 0.0 0.0 0.0 0.0 0.1 0.0 0.0 0.0 0.0 0.1 0.0 0.0 2.8 7.6 5.7 4.1 0.0 0.0 0.0 0.0 0.0 0.0 0.6 5.6 12.1 12.5 13.0
0.0 0.0 0.0 0.0 0.0 0.0 0.0 0.0 0.0 0.0 0.0 0.0 0.0 0.0 0.0 0.0 0.0 0.0 0.0 0.0 2.4 1.8 0.9 0.7 0.0 0.0 0.0 0.0 3.9 4.9 10.0 7.9 7.3 6.2 5.2 4.2 3.3 4.2 1.9 5.4 9.1 13.4 13.4
0.0 0.0 0.0 0.0 0.0 0.0 0.0 0.0 0.0 0.0 0.0 0.0 0.0 0.0 0.0 0.0 0.0 0.0 0.0 0.0 1.8 3.5 5.5 3.9 1.3 0.0 0.1 0.6 0.0 4.9 6.9 4.6 5.8 7.9 8.8 8.6 8.1 7.4 7.2 7.0 7.8 12.1 13.5
0.0 0.0 0.0 0.0 0.0 0.0 0.0 0.0 0.0 0.0 0.0 0.0 0.0 0.0 0.0 0.0 0.0 0.0 0.0 0.0 0.0 4.2 5.9 3.4 2.4 2.8 1.5 0.9 2.5 2.3 2.2 3.5 8.6 10.7 12.1 12.3 12.1 12.1 11.0 10.3 9.8 9.9 9.1
0.0 0.0 0.0 0.0 0.0 0.0 0.0 0.0 0.0 0.0 0.2 1.3 2.4 3.3 2.7 0.6 0.3 0.0 0.0 0.0 0.3 3.2 2.5 2.4 3.9 2.2 2.3 3.8 3.9 3.5 4.3 9.7 11.4 13.2 13.5 13.3 12.6 12.2 12.0 11.8 10.7 9.9 9.8
0.0 0.0 0.0 0.0 0.0 0.0 0.0 0.0 0.0 0.4 2.7 3.9 5.4 6.4 6.1 5.2 4.1 2.8 2.6 3.4 2.3 3.6 4.8 6.9 3.5 3.8 4.0 5.7 7.0 7.4 9.3 9.9 11.5 13.2 13.9 13.2 12.5 12.9 13.1 12.3 12.9 12.5 12.7
0.0 0.0 0.0 0.0 0.0 0.0 0.0 0.0 0.0 0.0 1.6 5.5 5.9 6.1 8.7 9.0 5.8 2.4 3.0 4.4 5.6 5.1 4.9 6.7 8.4 9.9 12.0 11.5 11.2 11.1 11.2 11.4 13.4 13.5 14.1 14.3 13.9 13.5 13.5 12.8 12.8 12.1 12.7
0.3 0.0 0.0 0.0 0.0 0.0 0.3 0.5 0.0 0.0 0.0 0.0 0.9 2.7 2.9 2.2 1.8 1.9 2.6 3.3 3.7 3.1 7.8 11.5 12.8 13.0 13.4 13.0 13.2 13.1 12.9 12.9 13.6 14.1 14.4 14.4 14.6 14.6 14.4 13.1 12.0 12.3 13.2
1.9 1.4 0.9 1.5 1.0 1.8 2.3 3.9 6.5 2.1 0.2 0.4 0.6 0.8 1.3 2.2 2.4 3.2 3.8 4.5 4.3 5.3 12.0 13.1 13.5 13.5 13.7 13.6 13.7 14.3 14.9 14.0 14.1 14.6 14.8 14.5 14.6 14.3 13.7 13.0 13.0 12.9 12.9
1.4 1.4 2.0 1.7 2.6 3.0 3.7 4.9 5.1 7.0 8.1 6.3 1.9 2.0 2.0 2.5 3.6 4.4 4.9 5.9 11.1 10.4 12.6 13.6 13.9 13.7 13.7 14.0 14.4 14.8 14.7 14.5 14.8 14.7 14.7 14.7 14.3 14.2 13.9 13.4 13.6 14.0 13.8
2.8 2.6 2.4 3.7 4.1 3.8 4.2 5.0 5.7 6.4 7.2 7.1 5.7 4.6 3.7 4.0 4.9 5.6 6.2 11.5 13.2 13.4 13.2 13.5 13.3 13.6 13.8 14.3 14.5 14.6 14.9 15.2 14.6 15.1 14.9 14.5 14.0 13.8 13.7 13.8 14.3 12.9 12.4
2.1 2.3 3.2 4.6 5.1 5.6 5.7 6.7 7.4 7.6 8.1 8.5 9.2 9.4 7.5 8.7 12.9 12.4 11.9 12.4 13.0 13.2 13.3 13.7 13.6 13.6 14.3 14.6 14.7 14.9 15.1 15.1 15.2 14.9 14.5 14.0 13.4 13.1 13.6 13.8 14.2 14.5 13.6
3.6 3.9 3.8 5.1 6.0 6.4 7.2 7.7 7.7 9.0 9.8 9.9 10.0 7.9 6.3 11.4 12.9 12.9 12.9 13.0 13.3 13.6 13.8 13.7 13.8 14.2 14.5 14.6 14.8 15.0 15.2 15.1 14.6 14.4 14.1 13.4 13.1 14.2 13.2 13.0 13.4 13.2 12.7
5.0 5.2 5.9 7.1 6.9 7.4 7.5 7.5 8.3 9.1 10.1 11.0 10.8 9.7 8.4 11.8 12.8 13.2 13.1 13.3 13.2 13.1 12.9 13.4 14.1 14.6 14.7 14.8 14.8 14.9 15.0 14.9 14.4 13.8 13.2 12.9 14.0 13.8 12.8 12.9 12.9 12.8 12.8
6.4 6.8 6.7 6.8 7.1 7.2 8.2 8.4 9.6 10.1 11.0 11.6 11.9 12.3 12.4 12.9 13.1 13.6 13.7 13.5 13.4 13.4 13.0 13.4 14.6 14.8 14.1 14.0 13.9 14.1 14.7 14.3 13.1 12.0 12.9 13.4 14.0 13.7 12.5 12.7 12.7 13.4 13.5
6.8 6.6 7.5 8.0 8.7 9.1 9.8 10.5 10.7 10.9 11.8 12.4 13.0 13.1 13.5 13.5 13.7 14.0 13.8 13.6 13.7 13.7 13.7 14.0 14.5 14.8 14.4 14.3 13.9 13.5 13.2 12.5 10.1 10.8 11.5 12.7 13.1 12.4 12.3 12.6 12.4 12.8 13.2
6.6 7.7 8.9 10.0 10.6 11.0 11.5 12.0 12.4 12.8 13.2 13.5 13.8 13.8 13.8 13.8 14.2 14.2 14.0 14.1 14.5 14.7 14.6 14.5 14.4 14.6 14.6 14.7 14.3 13.5 12.5 7.5 8.1 8.4 9.5 11.5 11.9 11.4 10.5 11.4 11.1 12.4 12.3
8.4 9.6 10.7 10.9 11.9 12.1 12.8 13.7 14.2 14.3 14.7 14.5 14.3 14.5 14.6 14.6 14.5 14.6 14.7 15.0 15.2 15.4 15.4 14.9 14.9 15.0 14.8 13.9 13.2 12.0 7.8 6.4 6.6 5.5 8.4 9.9 10.4 10.1 10.9 10.3 10.5 10.6 10.6